Location: Invercargill
(46.4000°S, 168.3500°E)
Time: 10:32:57
(UTC+13:00)

Cosmos 1470 Rocket - Pass Details

Date: 24 January 2019
Orbit: 603 x 635 km, 82.5° (Epoch: 15 February)

Event Time Altitude Azimuth Distance (km) Brightness Sun altitude
Rises 22:40:43 0° 194° (SSW) 2,941 8.1 -10.6°
Reaches altitude 10° 22:43:00 10° 199° (SSW) 2,031 7.3 -10.9°
Maximum altitude 22:47:22 51° 274° (W) 803 4.4 -11.5°
Drops below altitude 10° 22:51:43 10° 349° (N) 2,020 5.9 -12.0°
Enters shadow 22:53:03 - 352° (N) 2,550 6.4 -12.2°
